Погода в Терновке

Россия / Воронежская область     50°07′47″N   39°50′58″E
темп.,
°C
ветер,
м/с
пор.,
м/с
влажн.,
%
обл.,
%
осадки,
мм/ч
давл.,
гПа
погр.,
м
2 августа, пн
пн200:00+23ю11530 0.0 101111
03:00+22юв11570 0.0 101211
06:00+24юв23579 0.0 101253
09:00+31ю34365 0.0 1011731
12:00+34юз452842 0.0 10112598
15:00+35зюз452452 0.0 10093116
18:00+33зсз243426 0.0 1009445
21:00+27юв22440 0.0 100811
3 августа, вт
вт300:00+25юз22451 0.0 100915
03:00+23з4956100 0.1 1010189
06:00+21ссв127198 0.0 101079
09:00+25зсз6660100 0.1 1011453
12:00+27сз345475 0.0 1012894
15:00+30зсз5644100 0.0 10111712
18:00+24ссз2268100 0.0 1011216
21:00+20в2383100 0.8 101372
4 августа, ср
ср400:00+19сз22838 0.0 101418
03:00+17сз228834 0.0 101436
06:00+17ссз2680100 0.0 1015161
09:00+23с455668 0.0 1016569
12:00+27с553712 0.0 10161997
15:00+28ссз44320 0.0 10152467
18:00+27ссз44338 0.0 10152002
21:00+21с384990 0.0 1016116
5 августа, чт
чт500:00+19с34465 0.0 101755
03:00+18с3345100 0.0 101726
06:00+17св225277 0.0 101817
09:00+24с12356 0.0 1018383
12:00+28с32255 0.0 10172182
15:00+30ссз32245 0.0 10162549
18:00+28с443089 0.0 1015944
21:00+21св334452 0.0 101636
6 августа, пт
пт600:00+19всв34512 0.0 101546
03:00+18всв22522 0.0 101518
06:00+18в22555 0.0 101519
09:00+26юв34340 0.0 1014517
12:00+31юв33245 0.0 10131998
15:00+33вюв23215 0.0 10112873
18:00+32вюв442515 0.0 1011766
21:00+26в3433100 0.0 101155